EST,Max TemperatureF,Mean TemperatureF,Min TemperatureF,Max Dew PointF,MeanDew PointF,Min DewpointF,Max Humidity, Mean Humidity, Min Humidity, Max Sea Level PressureIn, Mean Sea Level PressureIn, Min Sea Level PressureIn, Max VisibilityMiles, Mean VisibilityMiles, Min VisibilityMiles, Max Wind SpeedMPH, Mean Wind SpeedMPH, Max Gust SpeedMPH,PrecipitationIn, CloudCover, Events, WindDirDegrees
2013-2-1,15,12,10,11,8,2,84,77,69,30.07,30.01,29.83,10,7,2,17,12,26,0.00,8,Snow,270
2013-2-2,15,12,8,9,5,2,89,76,63,30.04,30.01,29.97,10,9,2,10,6,18,0.00,6,Snow,310
2013-2-3,18,13,8,13,8,2,92,78,63,29.97,29.86,29.78,10,8,1,14,6,23,0.00,7,Snow,277
2013-2-4,16,11,5,8,6,3,89,73,56,29.95,29.92,29.89,10,10,5,10,6,17,0.00,4,Snow,302
2013-2-5,23,12,0,21,12,-3,93,83,72,29.98,29.78,29.65,10,7,0,16,5,24,0.00,6,Snow,277
2013-2-6,24,13,2,22,13,0,96,81,65,30.20,30.14,29.98,10,8,1,12,5,,0.00,6,Snow,284
2013-2-7,25,20,14,24,18,13,97,94,90,30.18,30.15,30.12,7,3,1,16,9,24,0.00,8,Snow,59
2013-2-8,23,12,0,16,12,-2,93,83,62,30.38,30.26,30.13,10,10,4,13,8,18,0.00,4,Snow,15
2013-2-9,28,12,-3,23,10,-7,96,85,72,30.38,30.29,30.14,10,10,10,12,2,,0.00,2,,153
2013-2-10,34,30,27,34,26,22,99,86,74,30.15,29.90,29.46,10,8,2,17,9,24,0.00,7,Snow,117
2013-2-11,40,32,25,38,31,19,99,91,78,29.76,29.45,29.32,10,7,2,18,12,30,0.00,8,Rain-Snow,228
2013-2-12,27,26,24,22,20,18,86,79,69,29.93,29.86,29.77,10,10,7,18,13,24,0.00,8,Snow,255
2013-2-13,34,30,27,32,28,22,92,87,78,29.79,29.67,29.63,10,8,5,17,12,22,0.00,7,,229
2013-2-14,33,28,23,32,28,17,99,91,76,29.84,29.67,29.60,10,4,1,20,7,31,0.00,8,Snow,316
2013-2-15,23,19,15,17,12,5,83,71,56,30.11,30.01,29.85,10,9,2,18,10,25,0.00,8,Snow,313
2013-2-16,16,9,2,12,6,-1,92,78,62,30.13,30.07,30.02,10,10,3,12,6,22,0.00,4,Snow,17
2013-2-17,23,14,5,17,9,3,90,77,66,30.15,30.11,30.04,10,10,3,12,2,,0.00,6,Snow,218
2013-2-18,35,28,22,34,22,17,97,75,63,30.04,29.74,29.39,10,9,2,15,10,23,0.00,6,Rain-Snow,129
2013-2-19,36,25,14,36,24,10,99,92,77,29.84,29.44,29.14,10,2,0,26,13,38,0.00,8,Rain-Snow,294
2013-2-20,20,16,11,16,9,5,83,77,71,30.29,30.12,29.85,10,8,2,20,13,29,0.00,8,Snow,336
2013-2-21,19,18,16,16,14,12,89,84,76,30.42,30.36,30.28,10,9,3,15,10,25,0.00,5,Snow,32
2013-2-22,28,23,18,27,22,16,98,92,89,30.29,30.03,29.79,10,6,0,21,10,30,0.00,8,Snow,83
2013-2-23,29,26,24,27,25,22,99,91,77,29.81,29.76,29.73,10,6,1,12,2,16,0.00,8,Snow,239
2013-2-24,32,20,9,30,20,7,99,92,80,30.12,29.94,29.80,10,7,0,8,1,,0.00,7,Fog-Snow,305
2013-2-25,33,30,26,28,27,23,93,85,75,30.16,30.14,30.12,10,10,1,9,2,,0.00,8,,195
2013-2-26,33,30,28,32,26,23,100,83,69,30.15,29.99,29.82,10,10,10,16,6,29,0.00,6,,63
2013-2-27,33,30,28,32,28,25,100,90,83,29.80,29.72,29.68,10,8,1,16,12,26,0.00,7,Snow,35
2013-2-28,32,26,21,28,21,15,93,77,67,30.11,29.96,29.78,10,9,1,15,11,25,0.00,6,Snow,3